Year,Month,Day,Hour,Minute,Value (Times are PST for temperature in C)
2006,07,16,00,00,13.10
2006,07,16,00,01,13.10
2006,07,16,00,02,13.10
2006,07,16,00,03,13.10
2006,07,16,00,04,13.00
2006,07,16,00,05,13.00
2006,07,16,00,06,13.00
2006,07,16,00,07,13.00
2006,07,16,00,08,13.00
2006,07,16,00,09,12.90
2006,07,16,00,10,12.90
2006,07,16,00,11,12.90
2006,07,16,00,12,12.90
2006,07,16,00,13,12.90
2006,07,16,00,14,12.90
2006,07,16,00,15,12.90
2006,07,16,00,16,12.80
2006,07,16,00,17,12.80
2006,07,16,00,18,12.80
2006,07,16,00,19,12.80
2006,07,16,00,20,12.80
2006,07,16,00,21,12.80
2006,07,16,00,22,12.80
2006,07,16,00,23,12.80
2006,07,16,00,24,12.70
2006,07,16,00,25,12.70
2006,07,16,00,26,12.70
2006,07,16,00,27,12.70
2006,07,16,00,28,12.60
2006,07,16,00,29,12.60
2006,07,16,00,30,12.60
2006,07,16,00,31,12.60
2006,07,16,00,32,12.60
2006,07,16,00,33,12.50
2006,07,16,00,34,12.50
2006,07,16,00,35,12.50
2006,07,16,00,36,12.50
2006,07,16,00,37,12.40
2006,07,16,00,38,12.40
2006,07,16,00,39,12.40
2006,07,16,00,40,12.40
2006,07,16,00,41,12.40
2006,07,16,00,42,12.40
2006,07,16,00,43,12.30
2006,07,16,00,44,12.30
2006,07,16,00,45,12.30
2006,07,16,00,46,12.30
2006,07,16,00,47,12.30
2006,07,16,00,48,12.30
2006,07,16,00,49,12.30
2006,07,16,00,50,12.30
2006,07,16,00,51,12.30
2006,07,16,00,52,12.30
2006,07,16,00,53,12.30
2006,07,16,00,54,12.30
2006,07,16,00,55,12.20
2006,07,16,00,56,12.20
2006,07,16,00,57,12.20
2006,07,16,00,58,12.20
2006,07,16,00,59,12.20
2006,07,16,01,00,12.20
2006,07,16,01,01,12.10
2006,07,16,01,02,12.10
2006,07,16,01,03,12.10
2006,07,16,01,04,12.10
2006,07,16,01,05,12.10
2006,07,16,01,06,12.10
2006,07,16,01,07,12.00
2006,07,16,01,08,12.00
2006,07,16,01,09,12.00
2006,07,16,01,10,12.00
2006,07,16,01,11,12.00
2006,07,16,01,12,11.90
2006,07,16,01,13,11.90
2006,07,16,01,14,11.90
2006,07,16,01,15,11.90
2006,07,16,01,16,11.90
2006,07,16,01,17,11.80
2006,07,16,01,18,11.80
2006,07,16,01,19,11.80
2006,07,16,01,20,11.80
2006,07,16,01,21,11.80
2006,07,16,01,22,11.80
2006,07,16,01,23,11.80
2006,07,16,01,24,11.80
2006,07,16,01,25,11.80
2006,07,16,01,26,11.80
2006,07,16,01,27,11.70
2006,07,16,01,28,11.70
2006,07,16,01,29,11.70
2006,07,16,01,30,11.70
2006,07,16,01,31,11.70
2006,07,16,01,32,11.70
2006,07,16,01,33,11.70
2006,07,16,01,34,11.70
2006,07,16,01,35,11.70
2006,07,16,01,36,11.60
2006,07,16,01,37,11.60
2006,07,16,01,38,11.60
2006,07,16,01,39,11.60
2006,07,16,01,40,11.60
2006,07,16,01,41,11.60
2006,07,16,01,42,11.60
2006,07,16,01,43,11.60
2006,07,16,01,44,11.60
2006,07,16,01,45,11.60
2006,07,16,01,46,11.50
2006,07,16,01,47,11.50
2006,07,16,01,48,11.40
2006,07,16,01,49,11.40
2006,07,16,01,50,11.40
2006,07,16,01,51,11.40
2006,07,16,01,52,11.40
2006,07,16,01,53,11.40
2006,07,16,01,54,11.40
2006,07,16,01,55,11.40
2006,07,16,01,56,11.40
2006,07,16,01,57,11.40
2006,07,16,01,58,11.40
2006,07,16,01,59,11.40
2006,07,16,02,00,11.40
2006,07,16,02,01,11.40
2006,07,16,02,02,11.40
2006,07,16,02,03,11.30
2006,07,16,02,04,11.30
2006,07,16,02,05,11.30
2006,07,16,02,06,11.30
2006,07,16,02,07,11.30
2006,07,16,02,08,11.30
2006,07,16,02,09,11.20
2006,07,16,02,10,11.20
2006,07,16,02,11,11.20
2006,07,16,02,12,11.20
2006,07,16,02,13,11.20
2006,07,16,02,14,11.20
2006,07,16,02,15,11.10
2006,07,16,02,16,11.10
2006,07,16,02,17,11.10
2006,07,16,02,18,11.10
2006,07,16,02,19,11.10
2006,07,16,02,20,11.10
2006,07,16,02,21,11.10
2006,07,16,02,22,11.10
2006,07,16,02,23,11.10
2006,07,16,02,24,11.10
2006,07,16,02,25,11.10
2006,07,16,02,26,11.10
2006,07,16,02,27,11.10
2006,07,16,02,28,11.10
2006,07,16,02,29,11.10
2006,07,16,02,30,11.10
2006,07,16,02,31,11.10
2006,07,16,02,32,11.00
2006,07,16,02,33,10.90
2006,07,16,02,34,10.90
2006,07,16,02,35,10.90
2006,07,16,02,36,10.90
2006,07,16,02,37,10.90
2006,07,16,02,38,10.90
2006,07,16,02,39,10.90
2006,07,16,02,40,10.90
2006,07,16,02,41,10.90
2006,07,16,02,42,10.90
2006,07,16,02,43,10.90
2006,07,16,02,44,10.90
2006,07,16,02,45,10.90
2006,07,16,02,46,10.90
2006,07,16,02,47,10.80
2006,07,16,02,48,10.80
2006,07,16,02,49,10.80
2006,07,16,02,50,10.80
2006,07,16,02,51,10.80
2006,07,16,02,52,10.80
2006,07,16,02,53,10.80
2006,07,16,02,54,10.80
2006,07,16,02,55,10.80
2006,07,16,02,56,10.70
2006,07,16,02,57,10.70
2006,07,16,02,58,10.70
2006,07,16,02,59,10.70
2006,07,16,03,00,10.70
2006,07,16,03,01,10.70
2006,07,16,03,02,10.70
2006,07,16,03,03,10.70
2006,07,16,03,04,10.70
2006,07,16,03,05,10.70
2006,07,16,03,06,10.70
2006,07,16,03,07,10.70
2006,07,16,03,08,10.70
2006,07,16,03,09,10.70
2006,07,16,03,10,10.70
2006,07,16,03,11,10.60
2006,07,16,03,12,10.60
2006,07,16,03,13,10.60
2006,07,16,03,14,10.60
2006,07,16,03,15,10.60
2006,07,16,03,16,10.60
2006,07,16,03,17,10.60
2006,07,16,03,18,10.60
2006,07,16,03,19,10.60
2006,07,16,03,20,10.60
2006,07,16,03,21,10.60
2006,07,16,03,22,10.60
2006,07,16,03,23,10.60
2006,07,16,03,24,10.60
2006,07,16,03,25,10.60
2006,07,16,03,26,10.60
2006,07,16,03,27,10.60
2006,07,16,03,28,10.60
2006,07,16,03,29,10.60
2006,07,16,03,30,10.60
2006,07,16,03,31,10.60
2006,07,16,03,32,10.60
2006,07,16,03,33,10.50
2006,07,16,03,34,10.40
2006,07,16,03,35,10.40
2006,07,16,03,36,10.40
2006,07,16,03,37,10.40
2006,07,16,03,38,10.40
2006,07,16,03,39,10.40
2006,07,16,03,40,10.40
2006,07,16,03,41,10.40
2006,07,16,03,42,10.40
2006,07,16,03,43,10.40
2006,07,16,03,44,10.40
2006,07,16,03,45,10.40
2006,07,16,03,46,10.40
2006,07,16,03,47,10.30
2006,07,16,03,48,10.30
2006,07,16,03,49,10.30
2006,07,16,03,50,10.30
2006,07,16,03,51,10.30
2006,07,16,03,52,10.30
2006,07,16,03,53,10.20
2006,07,16,03,54,10.20
2006,07,16,03,55,10.20
2006,07,16,03,56,10.20
2006,07,16,03,57,10.20
2006,07,16,03,58,10.20
2006,07,16,03,59,10.20
2006,07,16,04,00,10.20
2006,07,16,04,01,10.20
2006,07,16,04,02,10.20
2006,07,16,04,03,10.20
2006,07,16,04,04,10.20
2006,07,16,04,05,10.20
2006,07,16,04,06,10.20
2006,07,16,04,07,10.10
2006,07,16,04,08,10.10
2006,07,16,04,09,10.10
2006,07,16,04,10,10.10
2006,07,16,04,11,10.10
2006,07,16,04,12,10.10
2006,07,16,04,13,10.10
2006,07,16,04,14,10.10
2006,07,16,04,15,10.10
2006,07,16,04,16,10.10
2006,07,16,04,17,10.10
2006,07,16,04,18,10.10
2006,07,16,04,19,10.10
2006,07,16,04,20,10.10
2006,07,16,04,21,10.10
2006,07,16,04,22,10.10
2006,07,16,04,23,10.00
2006,07,16,04,24,9.90
2006,07,16,04,25,9.90
2006,07,16,04,26,9.90
2006,07,16,04,27,9.90
2006,07,16,04,28,9.90
2006,07,16,04,29,9.90
2006,07,16,04,30,9.90
2006,07,16,04,31,9.90
2006,07,16,04,32,9.90
2006,07,16,04,33,9.80
2006,07,16,04,34,9.80
2006,07,16,04,35,9.80
2006,07,16,04,36,9.80
2006,07,16,04,37,9.80
2006,07,16,04,38,9.80
2006,07,16,04,39,9.80
2006,07,16,04,40,9.80
2006,07,16,04,41,9.90
2006,07,16,04,42,9.90
2006,07,16,04,43,9.90
2006,07,16,04,44,9.90
2006,07,16,04,45,9.90
2006,07,16,04,46,9.90
2006,07,16,04,47,9.90
2006,07,16,04,48,9.90
2006,07,16,04,49,9.90
2006,07,16,04,50,9.90
2006,07,16,04,51,9.90
2006,07,16,04,52,9.90
2006,07,16,04,53,9.90
2006,07,16,04,54,9.90
2006,07,16,04,55,9.90
2006,07,16,04,56,9.90
2006,07,16,04,57,9.90
2006,07,16,04,58,9.90
2006,07,16,04,59,9.90
2006,07,16,05,00,9.90
2006,07,16,05,01,9.90
2006,07,16,05,02,9.90
2006,07,16,05,03,9.90
2006,07,16,05,04,9.90
2006,07,16,05,05,9.90
2006,07,16,05,06,9.90
2006,07,16,05,07,9.80
2006,07,16,05,08,9.80
2006,07,16,05,09,9.80
2006,07,16,05,10,9.80
2006,07,16,05,11,9.80
2006,07,16,05,12,9.80
2006,07,16,05,13,9.80
2006,07,16,05,14,9.80
2006,07,16,05,15,9.80
2006,07,16,05,16,9.80
2006,07,16,05,17,9.80
2006,07,16,05,18,9.80
2006,07,16,05,19,9.80
2006,07,16,05,20,9.70
2006,07,16,05,21,9.70
2006,07,16,05,22,9.70
2006,07,16,05,23,9.70
2006,07,16,05,24,9.70
2006,07,16,05,25,9.70
2006,07,16,05,26,9.70
2006,07,16,05,27,9.70
2006,07,16,05,28,9.70
2006,07,16,05,29,9.70
2006,07,16,05,30,9.70
2006,07,16,05,31,9.70
2006,07,16,05,32,9.70
2006,07,16,05,33,9.70
2006,07,16,05,34,9.70
2006,07,16,05,35,9.60
2006,07,16,05,36,9.60
2006,07,16,05,37,9.60
2006,07,16,05,38,9.60
2006,07,16,05,39,9.60
2006,07,16,05,40,9.70
2006,07,16,05,41,9.70
2006,07,16,05,42,9.70
2006,07,16,05,43,9.70
2006,07,16,05,44,9.70
2006,07,16,05,45,9.70
2006,07,16,05,46,9.70
2006,07,16,05,47,9.70
2006,07,16,05,48,9.70
2006,07,16,05,49,9.70
2006,07,16,05,50,9.70
2006,07,16,05,51,9.70
2006,07,16,05,52,9.70
2006,07,16,05,53,9.70
2006,07,16,05,54,9.70
2006,07,16,05,55,9.70
2006,07,16,05,56,9.70
2006,07,16,05,57,9.70
2006,07,16,05,58,9.70
2006,07,16,05,59,9.70
2006,07,16,06,00,9.70
2006,07,16,06,01,9.70
2006,07,16,06,02,9.70
2006,07,16,06,03,9.70
2006,07,16,06,04,9.70
2006,07,16,06,05,9.80
2006,07,16,06,06,9.80
2006,07,16,06,07,9.80
2006,07,16,06,08,9.90
2006,07,16,06,09,9.90
2006,07,16,06,10,9.90
2006,07,16,06,11,10.00
2006,07,16,06,12,10.10
2006,07,16,06,13,10.10
2006,07,16,06,14,10.10
2006,07,16,06,15,10.10
2006,07,16,06,16,10.20
2006,07,16,06,17,10.20
2006,07,16,06,18,10.20
2006,07,16,06,19,10.30
2006,07,16,06,20,10.40
2006,07,16,06,21,10.40
2006,07,16,06,22,10.40
2006,07,16,06,23,10.50
2006,07,16,06,24,10.60
2006,07,16,06,25,10.60
2006,07,16,06,26,10.70
2006,07,16,06,27,10.70
2006,07,16,06,28,10.80
2006,07,16,06,29,10.90
2006,07,16,06,30,11.00
2006,07,16,06,31,11.10
2006,07,16,06,32,11.30
2006,07,16,06,33,11.40
2006,07,16,06,34,11.60
2006,07,16,06,35,11.70
2006,07,16,06,36,11.70
2006,07,16,06,37,11.80
2006,07,16,06,38,11.90
2006,07,16,06,39,11.90
2006,07,16,06,40,11.90
2006,07,16,06,41,12.00
2006,07,16,06,42,12.10
2006,07,16,06,43,12.10
2006,07,16,06,44,12.20
2006,07,16,06,45,12.30
2006,07,16,06,46,12.30
2006,07,16,06,47,12.50
2006,07,16,06,48,12.50
2006,07,16,06,49,12.60
2006,07,16,06,50,12.80
2006,07,16,06,51,12.90
2006,07,16,06,52,13.00
2006,07,16,06,53,13.10
2006,07,16,06,54,13.30
2006,07,16,06,55,13.30
2006,07,16,06,56,13.30
2006,07,16,06,57,13.30
2006,07,16,06,58,13.30
2006,07,16,06,59,13.30
2006,07,16,07,00,13.30
2006,07,16,07,01,13.30
2006,07,16,07,02,13.30
2006,07,16,07,03,13.30
2006,07,16,07,04,13.30
2006,07,16,07,05,13.30
2006,07,16,07,06,13.30
2006,07,16,07,07,13.30
2006,07,16,07,08,13.30
2006,07,16,07,09,13.30
2006,07,16,07,10,13.40
2006,07,16,07,11,13.50
2006,07,16,07,12,13.50
2006,07,16,07,13,13.70
2006,07,16,07,14,13.80
2006,07,16,07,15,13.90
2006,07,16,07,16,14.10
2006,07,16,07,17,14.20
2006,07,16,07,18,14.40
2006,07,16,07,19,14.60
2006,07,16,07,20,14.80
2006,07,16,07,21,14.90
2006,07,16,07,22,15.00
2006,07,16,07,23,15.20
2006,07,16,07,24,15.40
2006,07,16,07,25,15.50
2006,07,16,07,26,15.60
2006,07,16,07,27,15.60
2006,07,16,07,28,15.70
2006,07,16,07,29,15.70
2006,07,16,07,30,15.70
2006,07,16,07,31,15.80
2006,07,16,07,32,15.80
2006,07,16,07,33,15.80
2006,07,16,07,34,15.80
2006,07,16,07,35,15.80
2006,07,16,07,36,15.80
2006,07,16,07,37,15.80
2006,07,16,07,38,15.80
2006,07,16,07,39,15.80
2006,07,16,07,40,15.80
2006,07,16,07,41,15.90
2006,07,16,07,42,15.90
2006,07,16,07,43,16.10
2006,07,16,07,44,16.10
2006,07,16,07,45,16.10
2006,07,16,07,46,16.10
2006,07,16,07,47,16.20
2006,07,16,07,48,16.20
2006,07,16,07,49,16.30
2006,07,16,07,50,16.30
2006,07,16,07,51,16.40
2006,07,16,07,52,16.40
2006,07,16,07,53,16.60
2006,07,16,07,54,16.70
2006,07,16,07,55,16.90
2006,07,16,07,56,17.00
2006,07,16,07,57,17.00
2006,07,16,07,58,17.30
2006,07,16,07,59,17.40
2006,07,16,08,00,17.50
2006,07,16,08,01,17.50
2006,07,16,08,02,17.50
2006,07,16,08,03,17.60
2006,07,16,08,04,17.60
2006,07,16,08,05,17.60
2006,07,16,08,06,17.60
2006,07,16,08,07,17.50
2006,07,16,08,08,17.40
2006,07,16,08,09,17.40
2006,07,16,08,10,17.30
2006,07,16,08,11,17.30
2006,07,16,08,12,17.40
2006,07,16,08,13,17.40
2006,07,16,08,14,17.40
2006,07,16,08,15,17.50
2006,07,16,08,16,17.50
2006,07,16,08,17,17.40
2006,07,16,08,18,17.40
2006,07,16,08,19,17.40
2006,07,16,08,20,17.40
2006,07,16,08,21,17.40
2006,07,16,08,22,17.50
2006,07,16,08,23,17.50
2006,07,16,08,24,17.50
2006,07,16,08,25,17.50
2006,07,16,08,26,17.50
2006,07,16,08,27,17.50
2006,07,16,08,28,17.50
2006,07,16,08,29,17.60
2006,07,16,08,30,17.70
2006,07,16,08,31,17.70
2006,07,16,08,32,17.80
2006,07,16,08,33,17.80
2006,07,16,08,34,17.80
2006,07,16,08,35,17.80
2006,07,16,08,36,17.90
2006,07,16,08,37,17.90
2006,07,16,08,38,17.90
2006,07,16,08,39,17.80
2006,07,16,08,40,17.80
2006,07,16,08,41,17.80
2006,07,16,08,42,17.80
2006,07,16,08,43,17.80
2006,07,16,08,44,17.90
2006,07,16,08,45,18.00
2006,07,16,08,46,18.10
2006,07,16,08,47,18.10
2006,07,16,08,48,18.10
2006,07,16,08,49,18.10
2006,07,16,08,50,18.20
2006,07,16,08,51,18.20
2006,07,16,08,52,18.20
2006,07,16,08,53,18.20
2006,07,16,08,54,18.20
2006,07,16,08,55,18.20
2006,07,16,08,56,18.20
2006,07,16,08,57,18.30
2006,07,16,08,58,18.40
2006,07,16,08,59,18.40
2006,07,16,09,00,18.40
2006,07,16,09,01,18.50
2006,07,16,09,02,18.60
2006,07,16,09,03,18.60
2006,07,16,09,04,18.60
2006,07,16,09,05,18.60
2006,07,16,09,06,18.70
2006,07,16,09,07,18.70
2006,07,16,09,08,18.70
2006,07,16,09,09,18.70
2006,07,16,09,10,18.70
2006,07,16,09,11,18.70
2006,07,16,09,12,18.70
2006,07,16,09,13,18.60
2006,07,16,09,14,18.60
2006,07,16,09,15,18.60
2006,07,16,09,16,18.50
2006,07,16,09,17,18.50
2006,07,16,09,18,18.50
2006,07,16,09,19,18.50
2006,07,16,09,20,18.60
2006,07,16,09,21,18.60
2006,07,16,09,22,18.60
2006,07,16,09,23,18.60
2006,07,16,09,24,18.60
2006,07,16,09,25,18.50
2006,07,16,09,26,18.50
2006,07,16,09,27,18.60
2006,07,16,09,28,18.60
2006,07,16,09,29,18.60
2006,07,16,09,30,18.60
2006,07,16,09,31,18.70
2006,07,16,09,32,18.70
2006,07,16,09,33,18.70
2006,07,16,09,34,18.70
2006,07,16,09,35,18.80
2006,07,16,09,36,18.90
2006,07,16,09,37,18.90
2006,07,16,09,38,18.90
2006,07,16,09,39,18.90
2006,07,16,09,40,18.90
2006,07,16,09,41,18.90
2006,07,16,09,42,18.90
2006,07,16,09,43,19.00
2006,07,16,09,44,19.10
2006,07,16,09,45,19.20
2006,07,16,09,46,19.40
2006,07,16,09,47,19.40
2006,07,16,09,48,19.50
2006,07,16,09,49,19.50
2006,07,16,09,50,19.50
2006,07,16,09,51,19.50
2006,07,16,09,52,19.50
2006,07,16,09,53,19.50
2006,07,16,09,54,19.60
2006,07,16,09,55,19.60
2006,07,16,09,56,19.70
2006,07,16,09,57,19.70
2006,07,16,09,58,19.80
2006,07,16,09,59,19.90
2006,07,16,10,00,20.00
2006,07,16,10,01,20.10
2006,07,16,10,02,20.20
2006,07,16,10,03,20.20
2006,07,16,10,04,20.30
2006,07,16,10,05,20.40
2006,07,16,10,06,20.40
2006,07,16,10,07,20.40
2006,07,16,10,08,20.30
2006,07,16,10,09,20.20
2006,07,16,10,10,20.20
2006,07,16,10,11,20.10
2006,07,16,10,12,20.10
2006,07,16,10,13,20.10
2006,07,16,10,14,20.20
2006,07,16,10,15,20.20
2006,07,16,10,16,20.20
2006,07,16,10,17,20.20
2006,07,16,10,18,20.20
2006,07,16,10,19,20.20
2006,07,16,10,20,20.20
2006,07,16,10,21,20.30
2006,07,16,10,22,20.40
2006,07,16,10,23,20.40
2006,07,16,10,24,20.40
2006,07,16,10,25,20.40
2006,07,16,10,26,20.50
2006,07,16,10,27,20.60
2006,07,16,10,28,20.60
2006,07,16,10,29,20.70
2006,07,16,10,30,20.70
2006,07,16,10,31,20.60
2006,07,16,10,32,20.50
2006,07,16,10,33,20.60
2006,07,16,10,34,20.60
2006,07,16,10,35,20.50
2006,07,16,10,36,20.40
2006,07,16,10,37,20.40
2006,07,16,10,38,20.40
2006,07,16,10,39,20.40
2006,07,16,10,40,20.30
2006,07,16,10,41,20.30
2006,07,16,10,42,20.40
2006,07,16,10,43,20.40
2006,07,16,10,44,20.50
2006,07,16,10,45,20.50
2006,07,16,10,46,20.40
2006,07,16,10,47,20.40
2006,07,16,10,48,20.50
2006,07,16,10,49,20.50
2006,07,16,10,50,20.50
2006,07,16,10,51,20.50
2006,07,16,10,52,20.60
2006,07,16,10,53,20.70
2006,07,16,10,54,20.70
2006,07,16,10,55,20.70
2006,07,16,10,56,20.50
2006,07,16,10,57,20.30
2006,07,16,10,58,20.20
2006,07,16,10,59,20.30
2006,07,16,11,00,20.40
2006,07,16,11,01,20.50
2006,07,16,11,02,20.60
2006,07,16,11,03,20.70
2006,07,16,11,04,20.80
2006,07,16,11,05,21.00
2006,07,16,11,06,21.10
2006,07,16,11,07,21.10
2006,07,16,11,08,21.10
2006,07,16,11,09,21.10
2006,07,16,11,10,21.10
2006,07,16,11,11,21.00
2006,07,16,11,12,21.00
2006,07,16,11,13,21.00
2006,07,16,11,14,20.90
2006,07,16,11,15,20.90
2006,07,16,11,16,20.90
2006,07,16,11,17,21.00
2006,07,16,11,18,21.00
2006,07,16,11,19,21.00
2006,07,16,11,20,21.10
2006,07,16,11,21,21.10
2006,07,16,11,22,21.00
2006,07,16,11,23,21.00
2006,07,16,11,24,21.00
2006,07,16,11,25,20.90
2006,07,16,11,26,20.90
2006,07,16,11,27,20.80
2006,07,16,11,28,20.80
2006,07,16,11,29,20.80
2006,07,16,11,30,21.00
2006,07,16,11,31,21.10
2006,07,16,11,32,21.20
2006,07,16,11,33,21.30
2006,07,16,11,34,21.40
2006,07,16,11,35,21.40
2006,07,16,11,36,21.40
2006,07,16,11,37,21.40
2006,07,16,11,38,21.40
2006,07,16,11,39,21.30
2006,07,16,11,40,21.20
2006,07,16,11,41,20.90
2006,07,16,11,42,20.70
2006,07,16,11,43,20.60
2006,07,16,11,44,20.60
2006,07,16,11,45,20.60
2006,07,16,11,46,20.60
2006,07,16,11,47,20.40
2006,07,16,11,48,20.40
2006,07,16,11,49,20.40
2006,07,16,11,50,20.40
2006,07,16,11,51,20.50
2006,07,16,11,52,20.50
2006,07,16,11,53,20.60
2006,07,16,11,54,20.70
2006,07,16,11,55,20.80
2006,07,16,11,56,20.80
2006,07,16,11,57,20.80
2006,07,16,11,58,20.80
2006,07,16,11,59,20.80
2006,07,16,12,00,20.80
2006,07,16,12,01,20.80
2006,07,16,12,02,20.70
2006,07,16,12,03,20.90
2006,07,16,12,04,21.10
2006,07,16,12,05,21.20
2006,07,16,12,06,21.30
2006,07,16,12,07,21.40
2006,07,16,12,08,21.40
2006,07,16,12,09,21.50
2006,07,16,12,10,21.60
2006,07,16,12,11,21.60
2006,07,16,12,12,21.60
2006,07,16,12,13,21.60
2006,07,16,12,14,21.60
2006,07,16,12,15,21.60
2006,07,16,12,16,21.80
2006,07,16,12,17,21.80
2006,07,16,12,18,21.80
2006,07,16,12,19,21.80
2006,07,16,12,20,21.50
2006,07,16,12,21,21.30
2006,07,16,12,22,21.40
2006,07,16,12,23,21.50
2006,07,16,12,24,21.60
2006,07,16,12,25,21.40
2006,07,16,12,26,21.30
2006,07,16,12,27,21.40
2006,07,16,12,28,21.50
2006,07,16,12,29,21.60
2006,07,16,12,30,21.70
2006,07,16,12,31,21.80
2006,07,16,12,32,21.80
2006,07,16,12,33,21.80
2006,07,16,12,34,21.70
2006,07,16,12,35,21.70
2006,07,16,12,36,21.60
2006,07,16,12,37,21.70
2006,07,16,12,38,21.70
2006,07,16,12,39,21.60
2006,07,16,12,40,21.60
2006,07,16,12,41,21.60
2006,07,16,12,42,21.60
2006,07,16,12,43,21.60
2006,07,16,12,44,21.50
2006,07,16,12,45,21.60
2006,07,16,12,46,21.60
2006,07,16,12,47,21.60
2006,07,16,12,48,21.70
2006,07,16,12,49,21.90
2006,07,16,12,50,21.90
2006,07,16,12,51,21.90
2006,07,16,12,52,22.00
2006,07,16,12,53,22.00
2006,07,16,12,54,22.20
2006,07,16,12,55,22.20
2006,07,16,12,56,22.20
2006,07,16,12,57,22.20
2006,07,16,12,58,22.10
2006,07,16,12,59,22.00
2006,07,16,13,00,21.90
2006,07,16,13,01,21.70
2006,07,16,13,02,21.70
2006,07,16,13,03,21.60
2006,07,16,13,04,21.60
2006,07,16,13,05,21.60
2006,07,16,13,06,21.60
2006,07,16,13,07,21.60
2006,07,16,13,08,21.60
2006,07,16,13,09,21.60
2006,07,16,13,10,21.60
2006,07,16,13,11,21.60
2006,07,16,13,12,21.60
2006,07,16,13,13,21.70
2006,07,16,13,14,21.90
2006,07,16,13,15,22.10
2006,07,16,13,16,22.20
2006,07,16,13,17,22.20
2006,07,16,13,18,22.40
2006,07,16,13,19,22.40
2006,07,16,13,20,22.50
2006,07,16,13,21,22.60
2006,07,16,13,22,22.50
2006,07,16,13,23,22.50
2006,07,16,13,24,22.40
2006,07,16,13,25,22.40
2006,07,16,13,26,22.40
2006,07,16,13,27,22.30
2006,07,16,13,28,22.20
2006,07,16,13,29,22.20
2006,07,16,13,30,22.10
2006,07,16,13,31,22.10
2006,07,16,13,32,22.00
2006,07,16,13,33,22.10
2006,07,16,13,34,22.20
2006,07,16,13,35,22.10
2006,07,16,13,36,22.10
2006,07,16,13,37,22.10
2006,07,16,13,38,22.20
2006,07,16,13,39,22.30
2006,07,16,13,40,22.50
2006,07,16,13,41,22.60
2006,07,16,13,42,22.70
2006,07,16,13,43,22.60
2006,07,16,13,44,22.60
2006,07,16,13,45,22.50
2006,07,16,13,46,22.40
2006,07,16,13,47,22.50
2006,07,16,13,48,22.50
2006,07,16,13,49,22.40
2006,07,16,13,50,22.30
2006,07,16,13,51,22.40
2006,07,16,13,52,22.40
2006,07,16,13,53,22.40
2006,07,16,13,54,22.30
2006,07,16,13,55,22.20
2006,07,16,13,56,22.20
2006,07,16,13,57,22.30
2006,07,16,13,58,22.40
2006,07,16,13,59,22.50
2006,07,16,14,00,22.50
2006,07,16,14,01,22.40
2006,07,16,14,02,22.40
2006,07,16,14,03,22.40
2006,07,16,14,04,22.30
2006,07,16,14,05,22.30
2006,07,16,14,06,22.20
2006,07,16,14,07,22.20
2006,07,16,14,08,22.20
2006,07,16,14,09,22.20
2006,07,16,14,10,22.10
2006,07,16,14,11,22.10
2006,07,16,14,12,22.10
2006,07,16,14,13,22.00
2006,07,16,14,14,22.00
2006,07,16,14,15,22.00
2006,07,16,14,16,22.00
2006,07,16,14,17,22.10
2006,07,16,14,18,22.10
2006,07,16,14,19,22.10
2006,07,16,14,20,22.10
2006,07,16,14,21,22.10
2006,07,16,14,22,22.00
2006,07,16,14,23,22.10
2006,07,16,14,24,22.20
2006,07,16,14,25,22.30
2006,07,16,14,26,22.30
2006,07,16,14,27,22.30
2006,07,16,14,28,22.30
2006,07,16,14,29,22.40
2006,07,16,14,30,22.40
2006,07,16,14,31,22.30
2006,07,16,14,32,22.20
2006,07,16,14,33,22.20
2006,07,16,14,34,22.30
2006,07,16,14,35,22.30
2006,07,16,14,36,22.30
2006,07,16,14,37,22.20
2006,07,16,14,38,22.10
2006,07,16,14,39,22.10
2006,07,16,14,40,22.00
2006,07,16,14,41,21.90
2006,07,16,14,42,21.80
2006,07,16,14,43,21.90
2006,07,16,14,44,21.90
2006,07,16,14,45,22.00
2006,07,16,14,46,22.00
2006,07,16,14,47,22.00
2006,07,16,14,48,22.10
2006,07,16,14,49,22.10
2006,07,16,14,50,22.10
2006,07,16,14,51,22.20
2006,07,16,14,52,22.20
2006,07,16,14,53,22.20
2006,07,16,14,54,22.10
2006,07,16,14,55,22.00
2006,07,16,14,56,21.90
2006,07,16,14,57,21.80
2006,07,16,14,58,21.70
2006,07,16,14,59,21.70
2006,07,16,15,00,21.70
2006,07,16,15,01,21.70
2006,07,16,15,02,21.60
2006,07,16,15,03,21.70
2006,07,16,15,04,21.80
2006,07,16,15,05,21.90
2006,07,16,15,06,22.00
2006,07,16,15,07,22.00
2006,07,16,15,08,22.20
2006,07,16,15,09,22.30
2006,07,16,15,10,22.40
2006,07,16,15,11,22.50
2006,07,16,15,12,22.50
2006,07,16,15,13,22.40
2006,07,16,15,14,22.40
2006,07,16,15,15,22.40
2006,07,16,15,16,22.20
2006,07,16,15,17,22.00
2006,07,16,15,18,22.00
2006,07,16,15,19,22.10
2006,07,16,15,20,22.20
2006,07,16,15,21,22.30
2006,07,16,15,22,22.30
2006,07,16,15,23,22.30
2006,07,16,15,24,22.30
2006,07,16,15,25,22.30
2006,07,16,15,26,22.40
2006,07,16,15,27,22.50
2006,07,16,15,28,22.50
2006,07,16,15,29,22.60
2006,07,16,15,30,22.70
2006,07,16,15,31,22.80
2006,07,16,15,32,22.90
2006,07,16,15,33,22.90
2006,07,16,15,34,23.00
2006,07,16,15,35,23.10
2006,07,16,15,36,23.30
2006,07,16,15,37,23.30
2006,07,16,15,38,23.30
2006,07,16,15,39,23.50
2006,07,16,15,40,23.80
2006,07,16,15,41,24.00
2006,07,16,15,42,24.10
2006,07,16,15,43,24.00
2006,07,16,15,44,23.90
2006,07,16,15,45,23.90
2006,07,16,15,46,23.80
2006,07,16,15,47,23.70
2006,07,16,15,48,23.70
2006,07,16,15,49,23.70
2006,07,16,15,50,23.70
2006,07,16,15,51,23.70
2006,07,16,15,52,23.60
2006,07,16,15,53,23.60
2006,07,16,15,54,23.60
2006,07,16,15,55,23.60
2006,07,16,15,56,23.50
2006,07,16,15,57,23.40
2006,07,16,15,58,23.30
2006,07,16,15,59,23.30
2006,07,16,16,00,23.30
2006,07,16,16,01,23.30
2006,07,16,16,02,23.30
2006,07,16,16,03,23.30
2006,07,16,16,04,23.30
2006,07,16,16,05,23.30
2006,07,16,16,06,23.30
2006,07,16,16,07,23.30
2006,07,16,16,08,23.40
2006,07,16,16,09,23.40
2006,07,16,16,10,23.40
2006,07,16,16,11,23.50
2006,07,16,16,12,23.60
2006,07,16,16,13,23.70
2006,07,16,16,14,23.70
2006,07,16,16,15,23.60
2006,07,16,16,16,23.60
2006,07,16,16,17,23.60
2006,07,16,16,18,23.70
2006,07,16,16,19,23.70
2006,07,16,16,20,23.80
2006,07,16,16,21,23.70
2006,07,16,16,22,23.60
2006,07,16,16,23,23.60
2006,07,16,16,24,23.50
2006,07,16,16,25,23.40
2006,07,16,16,26,23.30
2006,07,16,16,27,23.30
2006,07,16,16,28,23.20
2006,07,16,16,29,23.30
2006,07,16,16,30,23.40
2006,07,16,16,31,23.40
2006,07,16,16,32,23.40
2006,07,16,16,33,23.40
2006,07,16,16,34,23.50
2006,07,16,16,35,23.60
2006,07,16,16,36,23.60
2006,07,16,16,37,23.40
2006,07,16,16,38,23.40
2006,07,16,16,39,23.30
2006,07,16,16,40,23.30
2006,07,16,16,41,23.30
2006,07,16,16,42,23.30
2006,07,16,16,43,23.30
2006,07,16,16,44,23.40
2006,07,16,16,45,23.40
2006,07,16,16,46,23.40
2006,07,16,16,47,23.40
2006,07,16,16,48,23.30
2006,07,16,16,49,23.30
2006,07,16,16,50,23.20
2006,07,16,16,51,23.10
2006,07,16,16,52,23.20
2006,07,16,16,53,23.20
2006,07,16,16,54,23.20
2006,07,16,16,55,23.20
2006,07,16,16,56,23.30
2006,07,16,16,57,23.30
2006,07,16,16,58,23.30
2006,07,16,16,59,23.30
2006,07,16,17,00,23.30
2006,07,16,17,01,23.30
2006,07,16,17,02,23.30
2006,07,16,17,03,23.30
2006,07,16,17,04,23.30
2006,07,16,17,05,23.30
2006,07,16,17,06,23.30
2006,07,16,17,07,23.30
2006,07,16,17,08,23.20
2006,07,16,17,09,23.20
2006,07,16,17,10,23.10
2006,07,16,17,11,23.00
2006,07,16,17,12,22.90
2006,07,16,17,13,22.90
2006,07,16,17,14,22.90
2006,07,16,17,15,22.90
2006,07,16,17,16,22.90
2006,07,16,17,17,23.00
2006,07,16,17,18,23.10
2006,07,16,17,19,23.10
2006,07,16,17,20,23.10
2006,07,16,17,21,23.10
2006,07,16,17,22,23.10
2006,07,16,17,23,23.10
2006,07,16,17,24,23.20